Location: Carrières
(48.9495°N, 2.0407°E)
Time: 20:43:10
(UTC+00:00)

Transit 2A Rocket - Pass Details

Date: 28 April 2024
Orbit: 585 x 908 km, 66.7° (Epoch: 18 May)

Event Time Altitude Azimuth Distance (km) Brightness Sun altitude
Rises 09:07:50 0° 190° (S) 2,879 8.2 42.2°
Reaches altitude 10° 09:10:08 10° 182° (S) 2,014 7.6 42.5°
Maximum altitude 09:14:19 38° 114° (ESE) 1,030 8.3 43.1°
Drops below altitude 10° 09:18:53 10° 48° (NE) 2,200 7.6 43.7°
Sets 09:21:28 0° 41° (NE) 3,184 8.3 44.1°
